STARLINK-3947

operational
NORAD ID: 52607 Int'l Des: 2022-052 Owner: SPXS Country: US Constellation: starlink
LEOCIRCULAR

About STARLINK-3947

Description loading...

Live Position

Loading 3D Globe...

Upcoming Passes

Altitude History

Altitude vs Time

uPlot chart will show altitude changes over time

Two-Line Element Set

1 52607U 22052K 25250.66258933 -.00000343 00000-0 -34475-5 0 9997
2 52607 53.2188 25.7685 0001355 95.0209 265.0937 15.08834977183142
Epoch: Sep 7, 2025 • Age: 24 hours

Current Status

Altitude 539.8 km
Velocity 7.59 km/s
Sub-Earth Point 12.72°N, 165.71°E
Launch Date May 14, 2022
Age 3.3 years
Type internet

Technical Details

Classification Payload
Mass 297.00 kg
Dry Mass 275.00 kg
Total Mass 297.00 kg
Length 0.20 m
Diameter 2.80 m
Span 9.00 m
Shape Box + pan
Manufacturer SPXS
Bus Type Starlink
Phase Status In Orbit
Owner/State SPXS/US

Large Constellations

Loading constellations...